Flag for U.S.A. Weather past 2 weeks in Woodstock, New York, U.S.A.

Now
60 °F

Clear.


Feels Like: 60 °F
Forecast: 47 / 63 °F
Wind: 9 mph from West

Location: Dutchess County Airport

Current Time: Sep 22, 2014 at 6:36:48 AM

Latest Report: Sep 22, 2014 at 5:53 AM


Visibility: 10 mi

Pressure: 29.68 "Hg

Humidity: 83%

Dew point: 55 °F

Location of WoodstockLocation

Historic Weather in Woodstock — Graph

°F

Woodstock temperature yesterday

Maximum temperature yesterday: 78 °F (at 3:00 PM)
Minimum temperature yesterday: 61 °F (at 12:53 AM)
Average temperature yesterday: 68 °F

Past Weeks' High & Low Weather Summary

 TemperatureHumidityPressure
High80 °F (Sep 11, 4:53 PM)100% (Sep 17, 7:53 AM)30.35 "Hg (Sep 17, 7:53 AM)
Low43 °F (Sep 14, 6:53 AM)32% (Sep 7, 3:53 PM)29.58 "Hg (Sep 21, 6:53 PM)
Average61 °F74%30.09 "Hg
* Reported Sep 7 4:53 AM — Sep 22 4:53 AM, Woodstock, Weather by CustomWeather, © 2014

Note: Actual official high and low records may vary slightly from our data, if they occured in-between our weather recording intervals... More about our weather records

Advertising

Woodstock weather history for previous 24 hours

 ConditionsComfort  
Time TempWeatherWind HumidityBarometerVisibility
4:53 AM
Sep 22
62 °FClear.8 mph80%29.66 "Hg10 mi
3:53 AM63 °FPassing clouds.8 mph81%29.64 "Hg10 mi
2:53 AM65 °FOvercast.8 mph85%29.62 "Hg10 mi
1:53 AM65 °FMostly cloudy.3 mph91%29.62 "Hg10 mi
12:53 AM66 °FOvercast.No wind87%29.62 "Hg10 mi
11:53 PM
Sep 21
68 °FLight rain. Overcast.8 mph84%29.60 "Hg10 mi
10:53 PM68 °FLight rain. Fog.7 mph90%29.60 "Hg6 mi
9:53 PM66 °FFog.No wind93%29.58 "Hg5 mi
8:53 PM68 °FPassing clouds.No wind93%29.58 "Hg10 mi
7:53 PM67 °FSunny.5 mph93%29.58 "Hg10 mi
6:53 PM73 °FSunny.3 mph79%29.58 "Hg10 mi
5:53 PM75 °FSunny.5 mph74%29.59 "Hg10 mi
4:53 PM77 °FSunny.6 mph69%29.62 "Hg10 mi
3:53 PM77 °FPassing clouds.7 mph69%29.65 "Hg10 mi
3:00 PM78 °FPartly sunny.7 mph66%29.69 "Hg10 mi
1:53 PM74 °FOvercast.6 mph76%29.72 "Hg10 mi
12:53 PM75 °FMostly cloudy.3 mph71%29.76 "Hg10 mi
11:53 AM72 °FOvercast.No wind76%29.80 "Hg10 mi
10:53 AM69 °FLow clouds.No wind84%29.83 "Hg10 mi
9:53 AM67 °FMostly cloudy.3 mph87%29.86 "Hg10 mi
8:53 AM65 °FFog.No wind91%29.88 "Hg4 mi
7:53 AM65 °FFog.No wind91%29.89 "Hg3 mi
6:53 AM63 °FFog.No wind93%29.90 "Hg2 mi
Weather by CustomWeather, © 2014

See weather overviewHow to use our weather pages